Regional Weather Roundup
Issued by NWS

Home | Current Version | Previous Version | Graphics & Text | Print | Product List | Glossary On
Versions: 1 2 3 4 5 6 7 8 9 10 11 12 13 14 15 16 17 18 19 20 21 22 23 24 25 26 27 28 29 30 31 32 33 34 35 36 37 38 39 40 41 42 43 44 45 46 47 48 49 50
000
ASUS43 KLOT 290712
RWRIL

ILLINOIS REGIONAL WEATHER ROUNDUP
NATIONAL WEATHER SERVICE CHICAGO/ROMEOVILLE IL
200 AM CDT SUN MAR 29 2015

NOTE: "FAIR" INDICATES FEW OR NO CLOUDS BELOW 12,000 FEET WITH NO
SIGNIFICANT WEATHER AND/OR OBSTRUCTIONS TO VISIBILITY.

* THESE STATIONS ARE NOT UNDER NWS QUALITY CONTROL. THEY ALSO MAY NOT
  REPORT WEATHER SUCH AS PRECIPITATION OR FOG.

ILZ001-002-007-009-015-016-024-290800-
NORTHWEST ILLINOIS

CITY           SKY/WX    TMP DP  RH WIND       PRES   REMARKS
MOLINE         PTCLDY    31  18  58 S13       30.15F WCI  21
STERLING*      CLEAR     28  19  69 S6        30.18F WCI  22
SAVANNA*       PTCLDY    32  19  59 S12       30.16F WCI  23
$$

ILZ003-004-008-010-011-017-018-290800-
NORTH CENTRAL ILLINOIS

CITY           SKY/WX    TMP DP  RH WIND       PRES   REMARKS
ROCKFORD       PTCLDY    29  17  61 S13       30.20F WCI  19
FREEPORT*      PTCLDY    28  19  70 S9        30.18F WCI  19
ROCHELLE*      PTCLDY    26  20  77 S9        30.20F WCI  17
DE KALB*       PTCLDY    24  17  74 SE9       30.21F WCI  14
PERU*          CLEAR     31  18  58 S13       30.22F WCI  21
$$

ILZ005-006-012>014-019>023-290800-
NORTHEAST ILLINOIS

CITY           SKY/WX    TMP DP  RH WIND       PRES   REMARKS
CHICAGO-OHARE  PTCLDY    25  14  63 S7        30.23F WCI  17
CHICAGO-MIDWAY PTCLDY    28  13  53 S8        30.26F WCI  20
AURORA         PTCLDY    25  16  68 SE8       30.23F WCI  16
LANSING*       CLEAR     23  13  67 S6        30.27F WCI  15
JOLIET*        CLEAR     26  17  68 SE6       30.25F WCI  20
WAUKEGAN       CLEAR     26  13  57 S12       30.21F WCI  16
DUPAGE AIRPORT CLEAR     24  14  65 S8        30.22F WCI  15
KANKAKEE*      CLEAR     27  16  63 S6        30.28F WCI  20
WHEELING       CLEAR     26  13  57 S9        30.25F WCI  17
MORRIS*        PTCLDY    28  17  63 S9        30.24F WCI  19
ROMEOVILLE*    CLEAR     24  16  73 S9        30.25F WCI  14
NORTHERLY ISL    N/A     29  13  51 S7          N/A  WCI  22
$$

LMZ740>746-290800-
SOUTHERN LAKE MICHIGAN

STATION/POSITION SKY/WX   TEMP    WIND        PRES    VSBY  WAVE
                          AIR SEA DIR/SP/G                  HT/PER
                          (F)     (DEG/KT/KT) (MB)    (MI)  (FT/S)
HARRISON CRIB              30     190/ 14/ 15   N/A
BURNHAM HARBOR             29     170/ 11       N/A
BURNS HARBOR               27     170/  9/ 12 1025.7F
MICHIGAN CITY              25     130/ 10/ 12   N/A
$$

ILZ025>027-034>036-040-047-049-050-058-095>099-290800-
WEST-CENTRAL ILLINOIS

CITY           SKY/WX    TMP DP  RH WIND       PRES   REMARKS
QUINCY         PTCLDY    33  19  56 S13       30.16F WCI  24
GALESBURG*     CLEAR     30  22  69 S9        30.18F WCI  22
MACOMB*        CLEAR     30  23  75 SE9       30.20F WCI  21
JACKSONVILLE*  CLEAR     35  22  59 SE12      30.22F WCI  26
PITTSFIELD*    CLEAR     34  23  65 SE12      30.21F WCI  25
$$

ILZ028>032-037-038-041>044-048-051>054-059>061-290800-
CENTRAL ILLINOIS

CITY           SKY/WX    TMP DP  RH WIND       PRES   REMARKS
PONTIAC        CLEAR     27  21  76 SE8       30.25F WCI  19
BLOOMINGTON    CLEAR     28  20  72 S13       30.25F WCI  17
DECATUR        CLEAR     30  20  66 S9        30.27F WCI  22
PEORIA         CLEAR     34  18  52 S13       30.22F WCI  25
LACON*         CLEAR     30  17  57 S10       30.21F WCI  21
LINCOLN*       CLEAR     30  23  74 S6        30.27S WCI  24
SPRINGFIELD    CLEAR     34  20  56 S15       30.25F WCI  24
TAYLORVILLE    CLEAR     32  21  64 SE9       30.26F WCI  24
$$

ILZ033-039-045-046-055>057-062-063-290800-
EAST-CENTRAL ILLINOIS

CITY           SKY/WX    TMP DP  RH WIND       PRES   REMARKS
CHAMPAIGN      CLEAR     27  18  69 SE8       30.28F WCI  19
DANVILLE*      CLEAR     28  19  70 SE6       30.27F WCI  21
RANTOUL*       CLEAR     28  20  73 S5        30.28F WCI  23
MATTOON        CLEAR     29  18  63 S6        30.28F WCI  23
PARIS*         CLEAR     28  23  81 SE5       30.31F WCI  23
$$

ILZ079-100>102-290800-
SOUTHWEST ILLINOIS

CITY           SKY/WX    TMP DP  RH WIND       PRES   REMARKS
ALTON          CLEAR     32  19  56 SE8       30.27F WCI  25
BELLEVILLE     CLEAR     33  21  63 SE6       30.27F WCI  27
CAHOKIA*       CLEAR     34  21  59 SE9       30.27F WCI  27
SPARTA*        CLEAR     31  21  64 SE7       30.29F WCI  25
$$

ILZ064>066-069>071-074>076-080>082-084>086-088>090-092>094-290800-
SOUTH-CENTRAL ILLINOIS

CITY           SKY/WX    TMP DP  RH WIND       PRES   REMARKS
CARBONDALE     CLEAR     30  16  56 SE6       30.31F WCI  24
CAIRO*         CLEAR     36  23  60 SE8       30.32S WCI  29
EFFINGHAM*     CLEAR     29  18  62 SE6       30.31F WCI  23
MARION         CLEAR     32  19  59 SE6       30.32S WCI  26
MT. VERNON     CLEAR     30  16  55 SE5       30.31F WCI  25
CENTRALIA*     CLEAR     32  19  60 SE7       30.29F WCI  25
SALEM*         CLEAR     34  20  57 SE6       30.30F WCI  28
METROPOLIS*    CLEAR     30  22  70 E3        30.32F
$$

ILZ067-068-072-073-078-083-087-091-290800-
SOUTHEAST ILLINOIS

CITY           SKY/WX    TMP DP  RH WIND       PRES   REMARKS
LAWRENCEVILLE  CLEAR     28  24  85 SE3       30.34S
FLORA*         CLEAR     28  23  81 SE5       30.31F WCI  23
FAIRFIELD*     CLEAR     30  19  64 CALM      30.31F
HARRISBURG*    CLEAR     29  26  91 CALM      30.34F
ROBINSON*      CLEAR     23  19  84 CALM      30.34F
CARMI*         CLEAR     28  23  81 CALM      30.33F
$$

ABBREVIATIONS USED IN REMARKS
   TC - TEMPERATURE IN CELSIUS
  WCI - WIND CHILL INDEX
   HX - HEAT INDEX
  VSB - VISIBILITY
$$




USA.gov is the U.S. government's official web portal to all federal, state and local government web resources and services.